Lid_Strength_Index
3 2 2 1 1 1 1 1 0 1 0 0 -1 -1 -1 -1 -1 -1 -1 -1 -1 0 0 2 2 2 3 3 2 3 3 4
2 2 2 2 1 1 1 1 1 1 2 1 1 1 0 -0 -1 -1 -0 -1 -1 0 2 3 2 3 4 4 3 4 4 4
3 3 3 2 2 2 1 1 1 1 1 1 0 0 -0 -0 -1 -1 -1 -1 -1 -1 3 4 3 3 4 5 5 4 4 4
3 4 3 3 2 2 2 1 1 1 1 2 0 -0 -0 0 0 0 -0 0 -0 -1 2 4 3 4 5 5 5 4 5 4
3 3 3 3 2 2 1 1 1 1 1 2 1 2 2 1 0 -0 -0 0 0 -0 2 4 4 4 5 5 5 3 4 4
3 3 3 2 2 2 1 1 1 1 1 2 2 1 1 0 0 0 -0 -0 0 0 2 3 5 4 4 5 4 3 3 3
4 2 2 2 2 2 2 2 2 1 2 2 2 2 1 1 1 1 1 0 0 0 2 2 3 4 5 5 4 3 2 2
4 3 3 3 3 2 2 2 2 2 2 2 1 1 1 1 1 1 1 1 1 1 2 2 3 4 4 4 3 2 2 2
4 4 3 3 3 2 2 2 2 1 1 1 1 1 1 1 1 1 1 1 1 2 2 2 3 3 4 4 4 3 1 1
4 3 3 3 3 2 2 2 2 1 1 1 1 1 1 1 0 0 0 0 0 1 1 2 3 4 4 4 4 3 2 1
5 4 3 2 2 2 2 2 2 2 1 1 1 1 1 0 0 1 1 0 -0 1 1 1 2 3 4 4 3 2 2 1
6 4 3 2 2 2 2 2 2 2 1 1 1 1 1 0 1 0 0 0 -0 1 1 2 2 3 4 4 3 3 3 2
8 6 3 3 3 2 2 2 2 2 1 1 1 1 1 1 1 1 1 1 1 1 1 1 2 3 4 4 4 4 3 3
9 6 4 3 3 3 3 2 2 1 1 1 1 1 1 1 1 2 2 2 2 0 1 1 2 3 4 4 3 3 3 3
10 8 7 3 3 3 3 2 2 2 1 2 2 2 1 1 1 3 4 2 2 1 1 2 2 3 3 4 3 3 3 3
10 10 8 7 4 3 3 2 2 2 2 2 2 1 1 1 2 3 4 3 2 2 2 2 1 3 3 4 3 2 2 3
11 10 10 9 8 3 3 3 2 2 2 2 2 2 2 2 4 5 4 4 3 2 3 3 3 3 8 9 5 2 3 3
12 11 10 10 10 8 4 3 2 2 2 2 2 3 2 3 4 5 5 5 4 3 3 3 2 2 10 10 9 2 3 2
13 11 11 11 10 10 8 3 2 2 2 2 2 3 3 4 5 6 5 5 5 4 4 3 3 2 10 10 9 2 2 2